Location: Gwatt
(46.7204°N, 7.6223°E)
Time: 14:23:25
(UTC+00:00)

A-11 Canister half - Visible Passes

Search period start: 25 January 2021 00:00
Search period end: 04 February 2021 00:00
Orbit: 1524 x 1684 km, 47.3° (Epoch: 24 January)

Date Brightness Start Highest point End Pass type
(mag) Time Alt. Az. Time Alt. Az. Time Alt. Az.
25 Jan 9.1 18:16:45 10° WNW 18:26:19 79° SSW 18:32:39 26° ESE visible
25 Jan 9.8 20:21:57 10° WNW 20:30:38 39° SW 20:30:59 39° SW visible
26 Jan 9.1 17:55:07 10° WNW 18:04:40 80° SSW 18:12:38 18° ESE visible
26 Jan 9.8 20:00:16 10° WNW 20:09:01 41° SW 20:10:58 37° SSW visible
27 Jan 9.1 17:33:28 10° WNW 17:43:00 82° SSW 17:52:43 11° ESE visible
27 Jan 9.8 19:38:35 10° WNW 19:47:24 42° SW 19:51:03 32° S visible
27 Jan 11.1 21:47:27 10° WSW 21:49:25 11° WSW 21:49:25 11° WSW visible
28 Jan 9.2 17:11:49 10° WNW 17:21:20 83° SSW 17:31:10 10° ESE visible
28 Jan 9.8 19:16:55 10° WNW 19:25:48 44° SW 19:31:16 24° SSE visible
28 Jan 11.0 21:25:11 10° W 21:28:54 13° WSW 21:29:38 13° SW visible
29 Jan 9.2 16:50:10 10° WNW 16:59:40 84° SSW 17:09:30 10° ESE visible
29 Jan 9.8 18:55:15 10° WNW 19:04:10 46° SW 19:11:37 16° SSE visible
29 Jan 11.0 21:03:03 10° W 21:07:20 14° WSW 21:10:00 12° SW visible
30 Jan 9.8 18:33:34 10° WNW 18:42:33 47° SW 18:51:48 10° SSE visible
30 Jan 11.1 20:41:01 10° W 20:45:47 15° SW 20:50:33 10° SSW visible
31 Jan 9.8 18:11:55 10° WNW 18:20:56 49° SW 18:30:14 10° SE visible
31 Jan 11.1 20:19:03 10° W 20:24:13 16° SW 20:29:29 10° SSW visible
01 Feb 9.8 17:50:16 10° WNW 17:59:19 51° SW 18:08:38 10° SE visible
01 Feb 11.1 19:57:07 10° W 20:02:39 17° SW 20:08:17 10° SSW visible
02 Feb 9.8 17:28:37 10° WNW 17:37:41 53° SW 17:47:03 10° SE visible
02 Feb 11.1 19:35:14 10° W 19:41:05 18° SW 19:47:04 10° SSW visible
03 Feb 9.8 17:06:58 10° WNW 17:16:04 55° SSW 17:25:27 10° SE visible
03 Feb 11.1 19:13:23 10° W 19:19:31 19° SW 19:25:47 10° SSW visible
